This is the latest recevied weather packets stored in our database for station/object KO6LQJ. If no packets are shown the sender has not sent any weather packets the latest 10 day(s).
| Time | Temp. | Humidity | Pressure | Rain* | Wind** | Luminosity | Snow |
|---|---|---|---|---|---|---|---|
| 1777666297 | 25.56° C | 48% | 1015.2 hPa | 0 mm | - | 710 W/m² | - |
| 1777665994 | 25° C | 49% | 1015.4 hPa | 0 mm | - | 709 W/m² | - |
| 1777665692 | 24.44° C | 51% | 1015.4 hPa | 0 mm | - | 708 W/m² | - |
| 1777665389 | 24.44° C | 51% | 1015.3 hPa | 0 mm | - | 715 W/m² | - |
| 1777665085 | 24.44° C | 50% | 1015.5 hPa | 0 mm | - | 727 W/m² | - |
| 1777664780 | 25° C | 49% | 1015.4 hPa | 0 mm | - | 741 W/m² | - |
| 1777664476 | 23.89° C | 51% | 1015.5 hPa | 0 mm | - | 742 W/m² | - |
| 1777664174 | 24.44° C | 51% | 1015.6 hPa | 0 mm | - | 745 W/m² | - |
| 1777663872 | 23.89° C | 51% | 1015.6 hPa | 0 mm | - | 731 W/m² | - |
| 1777663569 | 24.44° C | 50% | 1015.7 hPa | 0 mm | - | 720 W/m² | - |
| 1777663266 | 23.89° C | 51% | 1015.6 hPa | 0 mm | - | 709 W/m² | - |
| 1777662963 | 24.44° C | 50% | 1015.9 hPa | 0 mm | - | 713 W/m² | - |
| 1777662660 | 23.89° C | 51% | 1016 hPa | 0 mm | - | 726 W/m² | - |
| 1777662356 | 22.78° C | 53% | 1016.2 hPa | 0 mm | - | 727 W/m² | - |
| 1777662052 | 22.22° C | 56% | 1016.2 hPa | 0 mm | - | 749 W/m² | - |
| 1777661748 | 23.33° C | 53% | 1016.3 hPa | 0 mm | - | 778 W/m² | - |
| 1777661444 | 22.78° C | 53% | 1016.5 hPa | 0 mm | - | 766 W/m² | - |
| 1777661140 | 22.78° C | 54% | 1016.5 hPa | 0 mm | - | 765 W/m² | - |
| 1777660840 | 22.78° C | 54% | 1016.4 hPa | 0 mm | - | 758 W/m² | - |
| 1777660538 | 22.22° C | 55% | 1016.5 hPa | 0 mm | - | 789 W/m² | - |
| 1777660234 | 22.78° C | 55% | 1016.4 hPa | 0 mm | - | 792 W/m² | - |
| 1777659931 | 22.22° C | 56% | 1016.5 hPa | 0 mm | - | 800 W/m² | - |
| 1777659628 | 21.11° C | 59% | 1016.8 hPa | 0 mm | - | 619 W/m² | - |
| 1777659325 | 21.11° C | 60% | 1016.9 hPa | 0 mm | - | 480 W/m² | - |
| 1777659021 | 21.11° C | 59% | 1016.7 hPa | 0 mm | - | 330 W/m² | - |
* Rain latest hour (hover to see other rain measurements)
** Current wind speed in m/s (hover to see current wind gust speed)